[[{"header":{"parameterUnit":"m.s-1","parameterCategory":1,"la1":30.2992,"la2":30.254,"lo1":-89.0895,"lo2":-89.0443,"dy":0.0025,"dx":0.0025,"nx":19,"ny":19,"refTime":"2026-03-23T09:00:00:Z","depth":0,"parameterNumber":2,"parameterNumberName":"U-component_of_WINDS"},"data":[0,0,0,2.8066,2.8069,2.8194,2.8194,2.837,2.8372,0,0,0,0,0,0,0,0,0,0,0,2.8036,2.8038,2.8066,2.8069,2.8194,2.8195,2.837,2.8372,0,0,0,0,0,0,0,0,0,0,0,2.8036,2.8037,2.8039,2.807,2.8194,2.8195,2.8369,2.827,0,0,0,0,0,0,0,0,0,0,2.8146,2.8125,2.8037,2.8039,2.807,2.8194,2.8195,2.8265,2.8276,2.832,0,2.8358,0,2.8368,2.8384,2.8385,0,0,0,2.8064,2.8116,2.8143,2.8039,2.8072,2.8194,2.8136,2.8271,2.8284,2.8335,2.8361,2.8367,2.8371,2.8386,2.8387,2.8648,2.865,0,0,2.8057,2.8063,2.8134,2.8151,2.8131,2.8132,2.814,2.8279,2.8308,2.8361,2.8371,2.8374,2.8387,2.8388,2.8647,2.8648,0,0,0,2.8041,2.8059,2.8082,2.8145,2.8166,2.8136,2.8145,2.8302,2.8309,2.8372,2.8376,2.8388,2.839,2.8645,2.8647,2.8724,0,0,0,2.8036,2.8049,2.8079,2.8084,2.8163,2.8235,2.8166,2.8299,2.8315,2.8375,2.8388,2.8392,2.8643,2.8646,2.8718,2.876,0,0,0,2.8026,2.8048,2.8068,2.8084,2.8138,2.8233,2.8247,2.8302,2.8317,2.8385,2.8393,2.8642,2.8646,2.8713,2.8751,2.883,0,0,0,2.8017,2.8135,2.8069,2.8204,2.8137,2.8278,2.8246,2.8352,2.842,2.8389,2.8644,2.8647,2.8712,2.8746,2.8825,2.8897,2.8927,0,0,2.817,2.8154,2.8232,2.8177,2.8331,2.8259,2.8426,2.8483,2.8485,2.8594,2.8601,2.872,2.8751,2.8829,2.9097,2.9121,0,0,0,2.8283,2.8339,2.8379,2.8443,2.8488,2.8531,2.8562,2.8584,2.8675,2.8542,2.877,2.8788,2.8833,2.8868,2.8888,2.8927,2.8663,2.8663,2.8662,2.8508,2.8503,2.8633,2.8644,2.8706,2.8737,2.8788,2.8822,2.88,2.8854,2.8886,2.9049,2.909,2.9105,2.9146,2.8924,2.8924,2.8925,2.8925,2.8732,2.8811,2.8778,2.8892,2.8887,2.8984,2.9019,2.9,2.909,2.9024,2.9064,2.8993,2.9132,2.9167,2.8931,2.893,2.8929,2.8928,2.8928,2.8879,2.8916,2.8939,2.9031,2.9103,2.9111,2.9198,2.9191,2.9185,2.9225,2.9258,2.9257,2.9255,2.9241,2.9242,2.9243,2.9243,2.9243,2.9244,2.9021,2.9045,2.9119,2.9178,2.9218,2.9271,2.9303,2.9344,2.9387,2.9375,2.9375,2.9348,2.9146,2.9095,2.9253,2.9251,2.925,2.9249,2.9248,2.925,2.9197,2.9311,2.9352,2.9421,2.9493,2.9483,2.9566,2.9598,2.9642,2.9607,2.9459,2.9443,2.9426,2.9384,2.9607,2.9607,2.9607,2.9607,2.9373,2.9364,2.9479,2.9545,2.9608,2.961,2.9742,2.977,2.979,2.981,2.9777,2.9721,2.9704,2.9698,2.9676,2.9637,2.9919,2.9919,2.9919,2.9513,2.951,2.9622,2.964,2.9694,2.9741,2.9864,2.9942,2.9955,2.9932,2.9826,2.9813,2.9722,2.9693,2.9667,2.9632,2.956,0,0]},{"header":{"parameterUnit":"m.s-1","parameterCategory":1,"la1":30.2992,"la2":30.254,"lo1":-89.0895,"lo2":-89.0443,"dy":0.0025,"dx":0.0025,"nx":19,"ny":19,"refTime":"2026-03-23T09:00:00:Z","depth":0,"parameterNumber":3,"parameterNumberName":"V-component_of_WINDS"},"data":[0,0,0,4.5701,4.5705,4.5905,4.5906,4.6156,4.6158,0,0,0,0,0,0,0,0,0,0,0,4.5639,4.5641,4.5701,4.5706,4.5905,4.5906,4.6155,4.6158,0,0,0,0,0,0,0,0,0,0,0,4.5639,4.5641,4.5643,4.5706,4.5905,4.5906,4.6155,4.6006,0,0,0,0,0,0,0,0,0,0,4.5813,4.5753,4.564,4.5643,4.5708,4.5905,4.5906,4.5999,4.6015,4.6063,0,4.6106,0,4.6136,4.6174,4.6175,0,0,0,4.5707,4.574,4.5796,4.5643,4.5709,4.5904,4.5816,4.6008,4.6026,4.6085,4.6109,4.6119,4.614,4.6176,4.6177,4.6451,4.6452,0,0,4.5696,4.5674,4.5783,4.5808,4.5778,4.5809,4.5822,4.6019,4.6044,4.611,4.6125,4.6144,4.6177,4.6179,4.645,4.6451,0,0,0,4.5663,4.5666,4.5717,4.5798,4.5834,4.5815,4.5829,4.6035,4.6054,4.6127,4.6147,4.6179,4.6182,4.6448,4.645,4.6489,0,0,0,4.5657,4.5647,4.5713,4.5701,4.583,4.5937,4.5841,4.604,4.6064,4.6146,4.6179,4.6184,4.6447,4.6449,4.6485,4.6511,0,0,0,4.5627,4.5643,4.5671,4.5699,4.5784,4.5935,4.5965,4.6046,4.6076,4.6175,4.6185,4.6446,4.6449,4.6482,4.6505,4.6577,0,0,0,4.5588,4.5702,4.5672,4.5806,4.5782,4.5957,4.5964,4.6095,4.6185,4.618,4.6447,4.645,4.648,4.6502,4.6573,4.6634,4.6657,0,0,4.5718,4.5716,4.5797,4.5776,4.5951,4.5929,4.6109,4.6212,4.6241,4.6379,4.6386,4.6486,4.6505,4.6576,4.6793,4.6811,0,0,0,4.5831,4.5888,4.594,4.6025,4.6108,4.6181,4.6259,4.6297,4.6416,4.6308,4.6532,4.6544,4.6586,4.6616,4.6632,4.667,4.6463,4.6462,4.6462,4.5982,4.6015,4.6151,4.6208,4.6291,4.6371,4.6442,4.6507,4.6514,4.6567,4.6608,4.6736,4.677,4.6782,4.6822,4.6642,4.6642,4.6643,4.6643,4.6176,4.6263,4.6273,4.6408,4.6442,4.6556,4.6637,4.6639,4.675,4.6707,4.6746,4.6697,4.6801,4.6837,4.6646,4.6645,4.6645,4.6645,4.6644,4.6279,4.6326,4.6372,4.65,4.6595,4.6649,4.6755,4.6782,4.6808,4.6847,4.6893,4.6893,4.6896,4.6867,4.6867,4.6868,4.6868,4.6869,4.6869,4.6367,4.6418,4.6505,4.6603,4.6662,4.6744,4.6826,4.6885,4.6956,4.6967,4.6968,4.6971,4.6805,4.6763,4.6876,4.6875,4.6874,4.6873,4.6873,4.6552,4.6515,4.665,4.6709,4.6827,4.692,4.6953,4.7071,4.7123,4.7175,4.717,4.7042,4.7042,4.703,4.6995,4.7162,4.7162,4.7162,4.7162,4.6639,4.6642,4.6787,4.688,4.6975,4.7019,4.7169,4.7235,4.7296,4.7331,4.731,4.7267,4.7253,4.7261,4.7243,4.7212,4.743,4.743,4.743,4.6755,4.6769,4.6892,4.6954,4.7048,4.7129,4.7272,4.7378,4.744,4.7442,4.7358,4.7347,4.7277,4.7252,4.7252,4.7225,4.7167,0,0]}]]